Content
SEND FEEDBACK

Daily
Averages
Monthly
Summary
Malaysia

BATU BERENDAM, MALAYSIA


Home > Asia > Malaysia
Elevation: 30 feet     Latitude: 02 16N     Longitude: 102 15E

WEATHER
 
SELECT A DAY
Number of Records: 111,992;   Date Range: 7/18/00 - 8/10/14
 
SHARE

PRINT THIS DATA

[ ← Previous Day ]
WEATHER ALMANAC - JANUARY 31, 2013
[ Next Day → ]
[ °C ]   °F
Weather ElementAverageHighLow
Temperature82.2 °F91.4 °F (1:00 pm)75.2 °F (4:00 am)
Dewpoint74.4 °F77 °F (3:00 pm)71.6 °F (1:00 am)
Humidity76.6 %94 % (4:00 am)57 % (2:00 pm)
Barometer29.90 in29.96 in (11:00 am)29.83 in (4:00 pm)
Wind Speed6.2 mph10.4 mph (1:00 pm)
Wind Gust21.9 mph (1:00 pm)
Weather ElementAverage
Visibility6.7 mi
Wind DirectionNE (41.3 °)

Weather ElementTotal
Precipitation---
Cooling Degree Days18.3 (Base 65)
Growing Degree Days33.3 (Base 50)
Averaged from 31 records on January 31, 2013
WEATHER CONDITIONS BREAKOUT
WIND DIRECTION BREAKOUT
WEATHER BY HOUR - JANUARY 31, 2013
[ °C ]   °F
Local TimeTemperatureDewpointHumidityBarometerVisibilityWind DirectionWind SpeedGust SpeedPrecipitationEventsConditions
1:00 AM77.0 °F71.6 °F83 %29.95 in6.2 miNNE (30°)3.5 mphMostly Cloudy
2:00 AM77.0 °F73.0 °F85 %29.94 in9.0 miNNE (30°)3.5 mphScattered Clouds
2:00 AM77.0 °F73.4 °F89 %29.92 in6.2 miNNE (30°)3.5 mphMostly Cloudy
3:00 AM77.0 °F73.4 °F89 %29.92 in6.2 miNNE (30°)3.5 mphMostly Cloudy
4:00 AM75.2 °F73.4 °F94 %29.89 in6.2 miNNE (30°)4.6 mphMostly Cloudy
5:00 AM76.0 °F73.0 °F88 %29.90 in9.0 miNNE (30°)5.8 mphScattered Clouds
5:00 AM77.0 °F73.4 °F89 %29.89 in6.2 miNNE (30°)5.8 mphMostly Cloudy
6:00 AM77.0 °F73.4 °F89 %29.89 in6.2 miNNE (30°)5.8 mphMostly Cloudy
7:00 AM77.0 °F73.4 °F89 %29.92 in5.6 miNNE (30°)4.6 mphMostly Cloudy
8:00 AM76.0 °F73.0 °F87 %29.94 in6.0 miNNE (30°)3.5 mphHaze
8:00 AM77.0 °F73.4 °F89 %29.92 in6.2 miNNE (30°)3.5 mphMostly Cloudy
9:00 AM78.8 °F73.4 °F83 %29.95 in6.2 miNE (40°)4.6 mphMostly Cloudy
10:00 AM82.4 °F73.4 °F74 %29.95 in6.2 miNE (40°)9.2 mphMostly Cloudy
11:00 AM85.0 °F75.0 °F66 %29.96 in10.0 miNNE (30°)6.9 mphHaze
11:00 AM86.0 °F75.2 °F70 %29.95 in6.2 miNNE (30°)6.9 mph18.4 mphMostly Cloudy
12:00 PM87.8 °F75.2 °F66 %29.92 in6.2 miNE (40°)9.2 mphMostly Cloudy
1:00 PM91.4 °F75.2 °F59 %29.92 in6.2 miNE (50°)10.4 mph21.9 mphMostly Cloudy
2:00 PM89.0 °F76.0 °F57 %29.91 in10.0 miNNE (30°)8.1 mphHaze
2:00 PM89.6 °F75.2 °F62 %29.89 in6.2 miNNE (30°)8.1 mphMostly Cloudy
3:00 PM91.4 °F77.0 °F63 %29.86 in6.2 miNNE (30°)8.1 mphMostly Cloudy
4:00 PM89.6 °F77.0 °F66 %29.83 in6.2 miNE (40°)6.9 mphMostly Cloudy
5:00 PM88.0 °F75.0 °F58 %29.83 in7.0 miNNE (30°)5.8 mphScattered Clouds
5:00 PM87.8 °F75.2 °F66 %29.83 in6.2 miNNE (30°)5.8 mphMostly Cloudy
6:00 PM86.0 °F75.2 °F70 %29.83 in6.2 miESE (110°)10.4 mphMostly Cloudy
7:00 PM84.2 °F77.0 °F79 %29.86 in6.2 miEast (100°)6.9 mphMostly Cloudy
8:00 PM83.0 °F76.0 °F73 %29.87 in7.0 miENE (70°)5.8 mphHaze
8:00 PM82.4 °F75.2 °F79 %29.86 in6.2 miENE (70°)5.8 mphMostly Cloudy
9:00 PM82.4 °F75.2 °F79 %29.89 in6.2 miNE (50°)9.2 mphMostly Cloudy
10:00 PM80.6 °F73.4 °F79 %29.89 in6.2 miNE (50°)5.8 mphMostly Cloudy
11:00 PM80.0 °F74.0 °F77 %29.93 in7.0 miNE (40°)4.6 mphScattered Clouds
11:00 PM80.6 °F73.4 °F79 %29.92 in6.2 miNE (40°)4.6 mphMostly Cloudy
Hourly data recorded from WMKM, located miles away from Batu Berendam, Malaysia







STORIES FROM OUR PARTNERS